Regional Weather Roundup
Issued by NWS

Home | Current Version | Previous Version | Text Only | Print | Product List | Glossary On
Versions: 1 2 3 4 5 6 7 8 9 10 11 12 13 14 15 16 17 18 19 20 21 22 23 24 25 26 27 28 29 30 31 32 33 34 35 36 37 38 39 40 41 42 43 44 45 46 47 48 49 50
290
ASUS44 KLUB 241810
RWRTX
WEST TEXAS WEATHER ROUNDUP
NATIONAL WEATHER SERVICE LUBBOCK TX
100 PM CDT SAT JUN 24 2017

NOTE: "FAIR" INDICATES FEW OR NO CLOUDS BELOW 12,000 FEET WITH NO
SIGNIFICANT WEATHER AND/OR OBSTRUCTIONS TO VISIBILITY.

TXZ004-006>008-010-012-014-016-OKZ002-241900-
TEXAS PANHANDLE/OKLAHOMA PANHANDLE

CITY           SKY/WX    TMP DP  RH WIND       PRES   REMARKS
AMARILLO       CLOUDY    64  58  80 SE15      30.32S
BORGER         CLOUDY    71  54  54 SE14      30.30S
CANADIAN       MOSUNNY   78  53  42 SE16      30.26F
DALHART        CLOUDY    71  49  45 SE15      30.33S
DUMAS          CLOUDY    71  51  49 SE17      30.31F
GUYMON         CLOUDY    74  52  46 S13G22    30.28F
HEREFORD       CLOUDY    65  58  79 SE15      30.33S
PAMPA          CLOUDY    74  54  49 S14       30.30F
PERRYTON       PTSUNNY   78  48  34 S15G24    30.27F
$$

TXZ026-029-035-045-048-241900-
SOUTHERN PANHANDLE/SOUTH PLAINS/ROLLING PLAINS

CITY           SKY/WX    TMP DP  RH WIND       PRES   REMARKS
CHILDRESS      LGT RAIN  67  61  81 E9        30.26F
SEMINOLE       CLOUDY    71  60  69 E13G18    30.28S
LUBBOCK        CLOUDY    72  58  61 SE13      30.26F
PLAINVIEW      CLOUDY    67  56  69 E9        30.27F
SNYDER         CLOUDY    73  64  75 E5        30.23F
$$

TXZ052-054-060>062-072-078-127-140-154-169-241900-
PERMIAN BASIN/CONCHO VALLEY/BIG COUNTRY/EDWARDS PLATEAU

CITY           SKY/WX    TMP DP  RH WIND       PRES   REMARKS
ABILENE        PTSUNNY   74  67  78 SE13      30.17F
BIG SPRING     PTSUNNY   77  63  60 E7G22     30.24F
JUNCTION       CLOUDY    73  69  87 E18G24    30.17R
MIDLAND        PTSUNNY   82  62  50 E15G25    30.22F
ODESSA         PTSUNNY   80  63  55 E14G22    30.23F
SAN ANGELO       N/A    N/A N/A N/A MISG      30.18
SONORA           N/A     79  68  69 E13G26    30.20R
SWEETWATER     CLOUDY    78  64  61 E9G20     30.23F
WINK           PTSUNNY   82  62  50 MISG      30.19F
$$

TXZ055-058-074-075-080-082-241900-
FAR WEST/SOUTHWEST MOUNTAINS/TRANS PECOS

CITY           SKY/WX    TMP DP  RH WIND       PRES   REMARKS
ALPINE         PTSUNNY   80  58  46 NE12G20   30.31F
DRYDEN           N/A     86  64  47 NE15G23   30.13R
EL PASO        SUNNY     90  53  28 E15G24    30.12S
FORT STOCKTON  PTSUNNY   82  64  54 E22G28    30.20S
MARFA          SUNNY     80  58  46 NE24      30.27R
PECOS          CLOUDY    83  62  48 E17       30.19F
PRESIDIO       FAIR      95  60  31 NE14G23   30.08F HX  95
$$

TXZ014-016-019-021>030-083-241900
TEXAS TECH WEST TEXAS MESONET/TEXAS PANHANDLE/NORTHERN SOUTH PLAINS

CITY           SKY/WX    TMP DP  RH WIND       PRES   REMARKS
ABERNATHY 5ENE   N/A     71  58  63 E9        30.28F
AMARILLO 9NNE    N/A     65  58  78 SE10      30.31F
AMARILLO 7SSE    N/A     64  57  78 SE14      30.34S
AMHERST 1NE      N/A     68  56  63 E12       30.30F
BOOTLEG 11WNW    N/A     63  54  74 SE15      30.36F
CANADIAN 6E      N/A     78  52  39 SE16      30.24F
CAPROCK CYN SP   N/A     66  60  81 NE7       30.29F
CHILDRESS 2NNE   N/A     68  60  76 E8        30.25F
CLARENDON 2WSW   N/A     70  58  64 SE9       30.29S
CLAUDE 12SW      N/A     65  58  78 SE9       30.31F
DIMMITT 2NE      N/A     61  56  83 E12       30.33S
FLOYDADA 2NNE    N/A     69  59  72 E10       30.28S
FRIONA 2NE       N/A     61  56  83 SE10      30.34S
GOODLETT 3W      N/A     69  61  76 NE9       30.23F
HART 3N          N/A     62  56  83 SE13      30.32S
HEREFORD 2NW     N/A     62  55  76 SE9       30.33S
MCLEAN 1E        N/A     71  58  63 SE9       30.27F
MEMPHIS 1NE      N/A     73  60  63 E10       30.25F
MULESHOE 2SSW    N/A     66  56  69 E12       30.31F
OLTON 6S         N/A     67  56  67 E9        30.29F
PALO DURO SP     N/A     65  57  74 SE8       30.33F
PAMPA 2E         N/A     71  56  59 SE10      30.29F
PLAINVIEW 1S     N/A     68  58  69 E8        30.28F
SILVERTON 7ESE   N/A     65  58  79 E9        30.30F
TULIA 2ENE       N/A     66  58  75 E10       30.31F
UMBARGER 3NNE    N/A     63  57  80 SE12      30.33F
$$

TXZ033>036-039>041-045>048-241900
TEXAS TECH WEST TEXAS MESONET/SOUTH PLAINS

CITY           SKY/WX    TMP DP  RH WIND       PRES   REMARKS
AIKEN 3WSW       N/A     69  58  68 E6        30.30F
ANDREWS 2NE      N/A     73  60  63 E13       30.26S
ANTON 6SSW       N/A     73  58  59 E13       30.27F
BROWNFIELD 2S    N/A     72  59  62 E9        30.27F
DENVR CTY 7WNW   N/A     72  57  57 E13G22    30.28S
GAIL 2ESE        N/A     72  61  68 E6        30.23F
LAMESA 2SE       N/A     69  61  74 E13       30.27R
LEVELLAND 4S     N/A     75  56  52 E10       30.28
LUBBOCK 3WNW     N/A     73  57  56 E9        30.27F
MORTON 1ENE      N/A     71  55  56 E9        30.29F
ODONNELL 1N      N/A     69  58  68 E10       30.26F
PLAINS 3N        N/A     72  57  58 E12       30.29F
RALLS 1SE        N/A     71  58  63 E7        30.28S
REESE CENTER     N/A     73  57  57 E10       30.27F
SEAGRAVES 1SW    N/A     72  60  65 E8        30.27F
SEMINOLE 2NNE    N/A     71  60  67 E12       30.27S
SLATON 2NE       N/A     70  58  65 E8        30.26F
SNYDER 3E        N/A     73  64  73 E6        30.23S
SUNDOWN 8SW      N/A     74  58  57 SE12      30.29F
TAHOKA 3NNE      N/A     69  58  68 SE10      30.26F
WOLFFORTH 6SSW   N/A     74  57  55 E12       30.27F
$$

TXZ031-032-036>038-042>044-241900-
TEXAS TECH WEST TEXAS MESONET/ROLLING PLAINS

CITY           SKY/WX    TMP DP  RH WIND       PRES   REMARKS
ASPERMONT 3NE    N/A     73  64  71 N3        30.21F
FLUVANNA 3WNW    N/A     68  61  78 E5        30.25S
GRAHAM 5SSW      N/A     65  60  82 E7        30.26F
GUTHRIE 10WSW    N/A     71  60  69 N6        30.23S
HASKELL 1NW      N/A     71  65  82 NE5       30.21R
JAYTON 1SSE      N/A     70  62  75 E2        30.23S
KNOX CITY 3NW    N/A     68  63  83 N9        30.22S
LK A HENRY 1NW   N/A     68  60  74 NE2       30.24S
NORTHFIELD 1S    N/A     67  60  78 E6        30.26S
ODELL 4ENE       N/A     73  65  77 NE7       30.22F
PADUCAH 10SW     N/A     66  62  87 NE5       30.25R
POST 1NE         N/A     68  59  72 NE5       30.25F
RRING SPRGS 3N   N/A     65  62  90 E5        30.26F
SPUR 1W          N/A     70  60  70 SE2       30.23F
WEINERT 2NNE     N/A     68  65  91 N8        30.22R
WHITE RVR 6NE    N/A     69  58  66 E6        30.25F
$$

TXZ052-054-060>062-072-078-127-140-154-169-241900-
TEXAS TECH WEST TEXAS MESONET/PERMIAN BASIN/
CONCHO VALLEY/BIG COUNTRY/EDWARDS PLATEAU

CITY           SKY/WX    TMP DP  RH WIND       PRES   REMARKS
COYANOSA 2N      N/A     84  64  51 E21       30.19F
JUNCTION 1SSW    N/A     73  68  84 NE10      30.18R
MERTZON 3NNE     N/A     78  66  67 E15       30.20R
STRLNG CT 4WSW   N/A     80  63  56 NE13      30.20F
ST LAWRNCE 5SW   N/A     80  61  52 E16       30.21F
SWEETWATR 11SW   N/A     78  64  62 SE12      30.22F
WALL 1E          N/A     76  68  75 E18       30.19S
$$

TXZ055-058-074-075-080-082-241900-
TEXAS TECH WEST TEXAS MESONET/FAR WEST/SOUTHWEST MOUNTAINS/TRANS PECOS

CITY           SKY/WX    TMP DP  RH WIND       PRES   REMARKS
PRSMN GAP BBNP   N/A     85  64  48 N28       30.13S
GUADLPE MTN NP   N/A     71  50  48 E14       30.35F
$$




USA.gov is the U.S. government's official web portal to all federal, state and local government web resources and services.